Regional Weather Roundup
Issued by NWS

Home | Current Version | Previous Version | Graphics & Text | Print | Product List | Glossary On
Versions: 1 2 3 4 5 6 7 8 9 10 11 12 13 14 15 16 17 18 19 20 21 22 23 24 25 26 27 28 29 30 31 32 33 34 35 36 37 38 39 40 41 42 43 44 45 46 47 48 49 50
000
ASUS43 KFSD 260702
RWRSD

WEATHER ROUNDUP FOR SOUTH DAKOTA
NATIONAL WEATHER SERVICE SIOUX FALLS SD
200 AM CDT SUN MAR 26 2017

NOTE: "FAIR" INDICATES FEW OR NO CLOUDS BELOW 12,000 FEET WITH NO
SIGNIFICANT WEATHER AND/OR OBSTRUCTIONS TO VISIBILITY.


SDZ001>005-009-010-012>017-260800-
NORTHWEST AND NORTH CENTRAL SOUTH DAKOTA

CITY           SKY/WX    TMP DP  RH WIND       PRES   REMARKS
BUFFALO          N/A     45  36  70 NE9       29.82S
FAITH            N/A     40  35  83 MISG      29.86S
MOBRIDGE       CLOUDY    40  34  79 SE9       29.90S
$$

SDZ012>016-024>037-041>051-057-063-072>074-260800-
SOUTHWEST AND SOUTH CENTRAL SOUTH DAKOTA

CITY           SKY/WX    TMP DP  RH WIND       PRES   REMARKS
RAPID CTY ARPT CLOUDY    46  30  53 N10       29.82R
PIERRE         CLOUDY    40  36  86 SE13      29.90S
CUSTER         CLOUDY    43  30  60 CALM      29.84S
ELLSWORTH AFB  CLOUDY    47  31  53 N9        29.82S
PHILIP         PTCLDY    38  35  89 E13       29.84S
PINE RIDGE     PTCLDY    50  28  42 S10       29.81S
SPEARFISH      FAIR      43  34  70 NW8       29.86F
WINNER         CLOUDY    41  38  89 S8        29.90S
$$

SDZ004>011-016>023-039-040-260800-
NORTHEAST SOUTH DAKOTA

CITY           SKY/WX    TMP DP  RH WIND       PRES   REMARKS
ABERDEEN       CLOUDY    35  33  92 E5        29.97F FOG
WATERTOWN      CLOUDY    35  35 100 SE5       29.95F FOG
BROOKINGS      CLOUDY    36  35  96 SE5       29.95  FOG
SISSETON         N/A     35  35 100 CALM      29.98F
$$

SDZ017-020-022-023-036>040-048>070-260800-
SOUTHEAST SOUTH DAKOTA

CITY           SKY/WX    TMP DP  RH WIND       PRES   REMARKS
SIOUX FALLS    CLOUDY    39  37  92 E7        29.95F
HURON          CLOUDY    39  38  96 SE8       29.95S
CHAMBERLAIN    CLOUDY    41  41  99 E6        29.92S
MITCHELL       CLOUDY    39  39 100 SE6       29.95S FOG
YANKTON        CLOUDY    37  36  93 E5        29.94F
$$

ABBREVIATIONS USED IN REMARKS
   TC - TEMPERATURE IN CELSIUS
  WCI - WIND CHILL INDEX
   HX - HEAT INDEX
  VSB - VISIBILITY





USA.gov is the U.S. government's official web portal to all federal, state and local government web resources and services.